Retour au catalogue

ARIANE 42P DEB

ActifLEO
NORAD 44511·DEBRIS·🇫🇷 France

Lancé Aug 10, 1992 depuis Guiana Space Centre

Loading…

Prochains Passages (prochaines 24 heures)

TLE

FraisSource: Space-Track

Époque: Sep 14, 2026, 12:27 UTC

1 44511U 92052J   26257.51939242  .00001151  00000-0  48776-2 0  9992
2 44511  66.0651  91.5101 0060175 241.9536 117.5388 12.85846797331712

Suivez ARIANE 42P DEB en temps réel avec AllMySat

Download on the App Store